Regional Weather Roundup
Issued by NWS

Home | Current Version | Previous Version | Text Only | Print | Product List | Glossary On
Versions: 1 2 3 4 5 6 7 8 9 10 11 12 13 14 15 16 17 18 19 20 21 22 23 24 25 26 27 28 29 30 31 32 33 34 35 36 37 38 39 40 41 42 43 44 45 46 47 48 49 50
000
ASUS43 KMPX 201401
RWRMN
WEATHER ROUNDUP FOR MINNESOTA
NATIONAL WEATHER SERVICE TWIN CITIES/CHANHASSEN MN
900 AM CDT SAT SEP 20 2014


NOTE: "FAIR" INDICATES FEW OR NO CLOUDS BELOW 12,000 FEET WITH NO
SIGNIFICANT WEATHER AND/OR OBSTRUCTIONS TO VISIBILITY. N/A MEANS
CURRENT SKY AND/OR WEATHER CONDITIONS ARE NOT AVAILABLE.

MNZ060>063-068>070-201500-
   Twin Cities Metro

CITY           SKY/WX    TMP DP  RH WIND       PRES   REMARKS
TWIN CITIES    MOSUNNY   65  58  78 W9        29.78R
ST PAUL        MOSUNNY   64  58  80 NW12      29.78R
CRYSTAL        SUNNY     66  58  75 NW9       29.77R
LAKEVILLE      MOSUNNY   64  59  82 NW10      29.79R
EDEN PRAIRIE   SUNNY     65  59  81 NW6       29.78S
SOUTH ST PAUL  SUNNY     66  58  74 NW10G16   29.77R
LAKE ELMO      CLOUDY    63  59  88 NW8G16    29.78R
$$
MNZ001>005-007-008-013>017-022>024-027-028-201500-
   Northwest Minnesota

CITY           SKY/WX    TMP DP  RH WIND       PRES   REMARKS
BEMIDJI        CLOUDY    55  52  88 W8        29.79R
HALLOCK        CLOUDY    54  52  94 S3        29.78R FOG
ROSEAU         PTSUNNY   52  46  82 W8        29.78R
WARROAD        MOSUNNY   52  46  82 W8        29.76S
THIEF RVR FALL CLOUDY    54  52  94 SW6       29.80S
CROOKSTON      MOSUNNY   55  52  88 W3        29.81F
FOSSTON        CLOUDY    54  52  94 W5        29.81S
DETROIT LAKES  CLOUDY    55  54  94 NW7       29.84R
MOORHEAD       SUNNY     55  55 100 W3        29.84S
PARK RAPIDS    CLOUDY    57  53  86 NW14      29.80R
MAHNOMEN       CLOUDY    55  53  93 W8        29.82R
$$
MNZ006-009>011-018-025>026-201500-
   North Central Minnesota

CITY           SKY/WX    TMP DP  RH WIND       PRES   REMARKS
BAUDETTE       MOSUNNY   51  47  86 VRB6      29.74R
FLAG ISLAND    CLOUDY    48  46  93 NW13      29.73S
INTL FALLS     CLOUDY    52  51  97 W8        29.72R FOG
WASKISH        PTSUNNY   54  48  82 W6        29.77R
BIG FORK       PTSUNNY   55  50  82 W6        29.76R
LONGVILLE      CLOUDY    57  52  82 NW10      29.78R
GRAND RAPIDS   CLOUDY    55  48  76 NW12      29.77R
CRANE LAKE     CLOUDY    54  54 100 W5        29.71R FOG
ORR            CLOUDY    52  48  87 W8        29.71R
COOK           CLOUDY    52  52 100 W9G18     29.73R FOG
WALKER         CLOUDY    56  51  84 W9        29.78S
$$
MNZ012-019>021-037-201500-
   Northeast Minnesota

CITY           SKY/WX    TMP DP  RH WIND       PRES   REMARKS
DULUTH         PTSUNNY   61  55  81 W15G23    29.71R
ELY            LGT RAIN  57  55  94 W8        29.67R
HIBBING        CLOUDY    57  52  83 NW10G21   29.74R
EVELETH        CLOUDY    57  54  88 W13G20    29.73R
DULUTH HARBOR  PTSUNNY   64  57  77 W14       29.70R
TWO HARBORS    MOSUNNY   63  55  77 W6G16     29.65R
SILVER BAY     SUNNY     63  61  94 W6        29.63R
GRAND MARAIS     N/A     59  58  96 CALM      29.57R
G MARAIS ARPRT CLOUDY    57  54  88 W8        29.61R
$$
MNZ029>031-032-039>041-046>048-054>057-064-201500-
   West Central Minnesota

CITY           SKY/WX    TMP DP  RH WIND       PRES   REMARKS
FERGUS FALLS   CLOUDY    55  54  94 NW8       29.85S
WHEATON        SUNNY     57  55  94 W3        29.87S
MORRIS         SUNNY     57  55  94 NW7       29.84S
ALEXANDRIA     PTSUNNY   58  55  90 NW13      29.85R
ELBOW LAKE     CLOUDY    56  54  94 NW9       29.85R
WADENA         MOSUNNY   57  54  88 NW6       29.82R
GLENWOOD       CLOUDY    57  55  94 W10       29.85R
APPLETON       SUNNY     61  57  88 W6        29.86R
BENSON         CLOUDY    57  57 100 N8        29.86R
ORTONVILLE     SUNNY     61  55  82 NW5       29.86S
MADISON        SUNNY     63  59  88 W6        29.87R
WILLMAR        CLOUDY    59  55  88 W13       29.86R FOG
$$
MNZ033>034-036-042>043-049>051-058-059-201500-
   Central Minnesota

CITY           SKY/WX    TMP DP  RH WIND       PRES   REMARKS
ST CLOUD       SUNNY     64  58  80 NW15      29.79R
SAUK CENTRE    CLOUDY    57  56  96 W8        29.84R FOG
PAYNESVILLE    MOSUNNY   56  56  98 SW12      29.83R
AITKIN         CLOUDY    59  54  82 W8        29.77R
PINE RIVER     MOSUNNY   57  54  88 NW6       29.82R
BRAINERD       PTSUNNY   57  53  86 NW7       29.80R
STAPLES        SUNNY     57  54  88 W7        29.81R
LONG PRAIRIE   PTSUNNY   57  54  88 W9        29.83R
LITTLE FALLS   CLOUDY    59  55  88 W8        29.81R
LITCHFIELD     SUNNY     63  61  94 W12       29.83R
BUFFALO        SUNNY     63  57  82 W8        29.80R
MAPLE LAKE     SUNNY     64  60  87 W9        29.81R
$$
MNZ037-044-045-052-053-201500-
   East Central Minnesota

CITY           SKY/WX    TMP DP  RH WIND       PRES   REMARKS
PRINCETON      SUNNY     63  59  88 W8        29.78R
MORA           PTSUNNY   59  55  88 NW8       29.78R
CAMBRIDGE      SUNNY     64  55  72 W10       29.75R
RUSH CITY      SUNNY     63  58  86 NW5       29.76R
MOOSE LAKE     MOSUNNY   61  54  77 NW7G16    29.72S
HINCKLEY       FAIR      63  59  88 NW6       29.75R
CLOQUET        CLOUDY    59  54  82 W16       29.73R
MCGREGOR       CLOUDY    57  54  88 NW13      29.77R
$$
MNZ071>073-080-081-089-090-097-098-201500-
   Southwest Minnesota

CITY           SKY/WX    TMP DP  RH WIND       PRES   REMARKS
MONTEVIDEO     SUNNY     63  59  88 NW6       29.87R
GRANITE FALLS  SUNNY     60  58  95 W7        29.88R
CANBY          SUNNY     63  57  82 W6        29.88S
MARSHALL       SUNNY     63  55  77 NW8       29.86S
REDWOOD FALLS  MOSUNNY   63  57  81 NW12      29.85R
OLIVIA         SUNNY     59  55  88 NW9       29.84R
PIPESTONE      MOSUNNY   63  55  77 NW6       29.90R
WINDOM         CLOUDY    63  57  82 W5        29.87R
WORTHINGTON    CLOUDY    63  59  88 W5        29.89S
JACKSON        CLOUDY    63  59  88 W5        29.88R
TRACY          MOSUNNY   64  59  81 NW6       29.88R
SLAYTON        PTSUNNY   63  58  83 CALM      29.89S
$$
MNZ065>067-074>077-082>085-091>093-201500-
   South Central Minnesota

CITY           SKY/WX    TMP DP  RH WIND       PRES   REMARKS
MANKATO        PTSUNNY   63  55  77 W9        29.82S
NEW ULM        PTSUNNY   63  61  94 W10       29.83R
ST JAMES       CLOUDY    64  57  77 W8        29.85R
FAIRMONT       CLOUDY    64  55  72 W6        29.86R
GLENCOE        MOSUNNY   63  57  80 W9        29.81R
FARIBAULT      PTSUNNY   68  57  68 W7        29.81R
OWATONNA       PTSUNNY   64  63  94 SW7       29.82R
WASECA         PTSUNNY   63  55  77 W6        29.83R
ALBERT LEA     CLOUDY    64  64 100 W9        29.83R
$$
MNZ078>079-086>088-094>096-201500-
   Southeast Minnesota

CITY           SKY/WX    TMP DP  RH WIND       PRES   REMARKS
ROCHESTER      CLOUDY    65  63  93 W13       29.81F
RED WING       PTSUNNY   70  63  78 W12G17    29.75R
STANTON        PTSUNNY   68  60  76 W12       29.77S
DODGE CENTER   CLOUDY    64  63  94 W12       29.81S
WINONA         PTSUNNY   70  63  78 W5        29.77R
AUSTIN         CLOUDY    64  63  94 W7        29.88R
PRESTON        CLOUDY    64  64 100 W9        29.81S
$$
ABBREVIATIONS USED IN REMARKS
   TC - TEMPERATURES IN CELSIUS
  WCI - WIND CHILL INDEX
   HX - HEAT INDEX
  VSB - VISIBILITY
$$



USA.gov is the U.S. government's official web portal to all federal, state and local government web resources and services.